Soldotna, AK

2:12 AM AKDT on March 27, 2017 (GMT -0800)
Soldotna

Weather History for PASX - February, 2014

Change the Weather History Date:

Friday, February 21, 2014

  Actual Average Record
Temperature  
Mean Temperature 11 °F -  
Max Temperature 19 °F 26 °F 42 °F (2004)
Min Temperature 3 °F 7 °F -28 °F (1990)
Degree Days  
Heating Degree Days 54    
Moisture  
Dew Point 7 °F    
Average Humidity 74    
Maximum Humidity 92    
Minimum Humidity 58    
Precipitation  
Precipitation 0.00 in - - ()
Sea Level Pressure  
Sea Level Pressure 30.23 in    
Wind  
Wind Speed 5 mph (ENE)    
Max Wind Speed 12 mph    
Max Gust Speed -    
Visibility 10 miles    
Events      
Averages and records for this station are not official NWS values.
T = Trace of Precipitation, MM = Missing Value Source: NWS Daily Summary

Daily Weather History Graph

Daily Weather History Graph

Search for Another Location

Airport or City:

Trip Planner

Search our weather history database for the weather conditions in past years. The results will help you decide how hot, cold, wet, or windy it might be!

Date:

Astronomy

Feb. 21, 2014 Rise Set
Actual Time 8:26 AM AKST 6:10 PM AKST
Civil Twilight 7:42 AM AKST 6:53 PM AKST
Nautical Twilight 6:53 AM AKST 7:42 PM AKST
Astronomical Twilight 6:04 AM AKST 8:32 PM AKST
Moon 1:57 AM AKST (2/21) 10:10 AM AKST (2/21)
Length of Visible Light 11h 11m
Length of Day
9h 44m
Waning Gibbous, 59% of the Moon is Illuminated
Feb 21
Waning Gibbous
Feb 22
Last Quarter
Feb 28
New
Mar 8
First Quarter
Mar 16
Full

Hourly Weather History & Observations

Time (AKST) Temp. Windchill Dew Point Humidity Pressure Visibility Wind Dir Wind Speed Gust Speed Precip Events Conditions
12:16 AM 12.2 °F 6.1 °F 8.6 °F 85% 30.13 in 10.0 mi East 3.5 mph - N/A   Overcast
12:36 AM 14.0 °F 5.1 °F 10.4 °F 86% 30.13 in 10.0 mi East 5.8 mph - N/A   Mostly Cloudy
12:56 AM 14.0 °F 5.1 °F 10.4 °F 86% 30.14 in 10.0 mi ENE 5.8 mph - N/A   Partly Cloudy
1:16 AM 14.0 °F 5.1 °F 10.4 °F 86% 30.15 in 10.0 mi ENE 5.8 mph - N/A   Clear
1:36 AM 12.2 °F 4.3 °F 8.6 °F 85% 30.15 in 10.0 mi ENE 4.6 mph - N/A   Clear
1:56 AM 12.2 °F 6.1 °F 8.6 °F 85% 30.15 in 10.0 mi ENE 3.5 mph - N/A   Clear
2:16 AM 12.2 °F 4.3 °F 8.6 °F 85% 30.16 in 10.0 mi NE 4.6 mph - N/A   Scattered Clouds
2:36 AM 8.6 °F - 5.0 °F 85% 30.16 in 10.0 mi Calm Calm - N/A   Clear
2:56 AM 8.6 °F - 3.2 °F 79% 30.17 in 10.0 mi Calm Calm - N/A   Clear
3:16 AM 6.8 °F - 1.4 °F 79% 30.18 in 10.0 mi Calm Calm - N/A   Clear
3:36 AM 6.8 °F - 1.4 °F 79% 30.18 in 10.0 mi Calm Calm - N/A   Clear
3:56 AM 6.8 °F - 1.4 °F 79% 30.18 in 10.0 mi Calm Calm - N/A   Clear
4:16 AM 5.0 °F - 1.4 °F 85% 30.18 in 10.0 mi Calm Calm - N/A   Mostly Cloudy
4:36 AM 6.8 °F -2.0 °F 5.0 °F 92% 30.19 in 10.0 mi NE 4.6 mph - N/A   Mostly Cloudy
4:56 AM 6.8 °F -0.1 °F -0.4 °F 72% 30.19 in 10.0 mi NE 3.5 mph - N/A   Partly Cloudy
5:16 AM 3.2 °F - 1.4 °F 92% 30.18 in 10.0 mi Calm Calm - N/A   Clear
5:36 AM 5.0 °F - 1.4 °F 85% 30.19 in 10.0 mi Calm Calm - N/A   Clear
5:56 AM 6.8 °F -0.1 °F 3.2 °F 85% 30.19 in 10.0 mi NE 3.5 mph - N/A   Clear
6:16 AM 3.2 °F - -0.4 °F 85% 30.20 in 10.0 mi Calm Calm - N/A   Clear
6:36 AM 5.0 °F - 1.4 °F 85% 30.19 in 10.0 mi Calm Calm - N/A   Clear
6:56 AM 6.8 °F -0.1 °F 5.0 °F 92% 30.20 in 10.0 mi East 3.5 mph - N/A   Clear
7:16 AM 8.6 °F 2.0 °F 3.2 °F 79% 30.20 in 10.0 mi East 3.5 mph - N/A   Clear
7:36 AM 8.6 °F 0.1 °F 5.0 °F 85% 30.20 in 10.0 mi ENE 4.6 mph - N/A   Clear
7:56 AM 8.6 °F 2.0 °F 5.0 °F 85% 30.21 in 10.0 mi ENE 3.5 mph - N/A   Scattered Clouds
8:16 AM 8.6 °F - 5.0 °F 85% 30.21 in 10.0 mi Calm Calm - N/A   Overcast
8:36 AM 8.6 °F - 3.2 °F 79% 30.22 in 10.0 mi Calm Calm - N/A   Overcast
8:56 AM 8.6 °F 2.0 °F 3.2 °F 79% 30.23 in 10.0 mi ENE 3.5 mph - N/A   Overcast
9:16 AM 10.4 °F 0.8 °F 6.8 °F 85% 30.23 in 10.0 mi ENE 5.8 mph - N/A   Overcast
9:36 AM 10.4 °F -0.4 °F 6.8 °F 85% 30.24 in 10.0 mi ENE 6.9 mph - N/A   Overcast
9:56 AM 10.4 °F -1.5 °F 6.8 °F 85% 30.24 in 10.0 mi ENE 8.1 mph - N/A   Overcast
10:16 AM 12.2 °F 0.7 °F 5.0 °F 73% 30.24 in 10.0 mi ENE 8.1 mph - N/A   Overcast
10:36 AM 12.2 °F 0.7 °F 6.8 °F 79% 30.24 in 10.0 mi ENE 8.1 mph - N/A   Overcast
10:56 AM 12.2 °F -0.2 °F 6.8 °F 79% 30.24 in 10.0 mi ENE 9.2 mph - N/A   Overcast
11:16 AM 12.2 °F 0.7 °F 6.8 °F 79% 30.25 in 10.0 mi ENE 8.1 mph - N/A   Overcast
11:36 AM 14.0 °F 2.0 °F 6.8 °F 73% 30.25 in 10.0 mi ENE 9.2 mph - N/A   Overcast
11:56 AM 14.0 °F 2.0 °F 6.8 °F 73% 30.26 in 10.0 mi ENE 9.2 mph - N/A   Overcast
12:16 PM 15.8 °F 5.1 °F 6.8 °F 68% 30.26 in 10.0 mi NE 8.1 mph - N/A   Overcast
12:36 PM 15.8 °F 4.2 °F 5.0 °F 62% 30.27 in 10.0 mi NE 9.2 mph - N/A   Overcast
12:56 PM 15.8 °F 2.7 °F 6.8 °F 68% 30.27 in 10.0 mi NE 11.5 mph - N/A   Overcast
1:16 PM 15.8 °F 6.1 °F 6.8 °F 68% 30.26 in 10.0 mi NE 6.9 mph - N/A   Overcast
1:36 PM 17.6 °F 7.3 °F 6.8 °F 63% 30.26 in 10.0 mi NE 8.1 mph - N/A   Overcast
1:56 PM 17.6 °F 8.2 °F 6.8 °F 63% 30.27 in 10.0 mi NE 6.9 mph - N/A   Overcast
2:16 PM 17.6 °F 7.3 °F 6.8 °F 63% 30.27 in 10.0 mi ENE 8.1 mph - N/A   Overcast
2:36 PM 17.6 °F 6.4 °F 8.6 °F 68% 30.26 in 10.0 mi NE 9.2 mph - N/A   Overcast
2:56 PM 19.4 °F 7.9 °F 8.6 °F 63% 30.26 in 10.0 mi NE 10.4 mph - N/A   Overcast
3:16 PM 19.4 °F 8.6 °F 6.8 °F 58% 30.26 in 10.0 mi NE 9.2 mph - N/A   Overcast
3:36 PM 19.4 °F 8.6 °F 8.6 °F 63% 30.26 in 10.0 mi NE 9.2 mph - N/A   Overcast
3:56 PM 19.4 °F 9.5 °F 8.6 °F 63% 30.26 in 10.0 mi ENE 8.1 mph - N/A   Overcast
4:16 PM 19.4 °F 11.5 °F 6.8 °F 58% 30.26 in 10.0 mi NNE 5.8 mph - N/A   Overcast
4:36 PM 19.4 °F 8.6 °F 6.8 °F 58% 30.26 in 10.0 mi NE 9.2 mph - N/A   Overcast
4:56 PM 19.4 °F 9.5 °F 6.8 °F 58% 30.26 in 10.0 mi NE 8.1 mph - N/A   Overcast
5:16 PM 19.4 °F 10.4 °F 8.6 °F 63% 30.26 in 10.0 mi NE 6.9 mph - N/A   Mostly Cloudy
5:36 PM 19.4 °F 9.5 °F 6.8 °F 58% 30.26 in 10.0 mi ENE 8.1 mph - N/A   Overcast
5:56 PM 19.4 °F 10.4 °F 6.8 °F 58% 30.26 in 10.0 mi NE 6.9 mph - N/A   Overcast
6:16 PM 19.4 °F 10.4 °F 6.8 °F 58% 30.27 in 10.0 mi ENE 6.9 mph - N/A   Overcast
6:36 PM 19.4 °F 10.4 °F 8.6 °F 63% 30.27 in 10.0 mi NE 6.9 mph - N/A   Overcast
6:56 PM 19.4 °F 10.4 °F 8.6 °F 63% 30.27 in 10.0 mi NE 6.9 mph - N/A   Overcast
7:16 PM 19.4 °F 10.4 °F 8.6 °F 63% 30.27 in 10.0 mi ENE 6.9 mph - N/A   Overcast
7:36 PM 19.4 °F 9.5 °F 10.4 °F 68% 30.27 in 10.0 mi ENE 8.1 mph - N/A   Mostly Cloudy
7:56 PM 19.4 °F 9.5 °F 8.6 °F 63% 30.28 in 10.0 mi ENE 8.1 mph - N/A   Overcast
8:16 PM 19.4 °F 10.4 °F 8.6 °F 63% 30.28 in 10.0 mi ENE 6.9 mph - N/A   Overcast
8:36 PM 19.4 °F 10.4 °F 10.4 °F 68% 30.28 in 10.0 mi ENE 6.9 mph - N/A   Overcast
8:56 PM 19.4 °F 9.5 °F 10.4 °F 68% 30.28 in 10.0 mi ENE 8.1 mph - N/A   Overcast
9:16 PM 19.4 °F 9.5 °F 10.4 °F 68% 30.29 in 10.0 mi NE 8.1 mph - N/A   Overcast
9:36 PM 19.4 °F 11.5 °F 10.4 °F 68% 30.29 in 8.0 mi ENE 5.8 mph - N/A   Overcast
9:56 PM 19.4 °F 9.5 °F 12.2 °F 74% 30.29 in 7.0 mi ENE 8.1 mph - N/A   Overcast
10:16 PM 19.4 °F 11.5 °F 12.2 °F 74% 30.29 in 8.0 mi ENE 5.8 mph - N/A   Overcast
10:36 PM 19.4 °F 11.5 °F 12.2 °F 74% 30.29 in 7.0 mi NE 5.8 mph - N/A   Overcast
10:56 PM 19.4 °F 11.5 °F 14.0 °F 80% 30.30 in 10.0 mi ENE 5.8 mph - N/A   Overcast
11:16 PM 19.4 °F 12.8 °F 14.0 °F 80% 30.30 in 8.0 mi NE 4.6 mph - N/A   Overcast
11:36 PM 19.4 °F 14.3 °F 14.0 °F 80% 30.30 in 3.0 mi ENE 3.5 mph - N/A   Mostly Cloudy
11:56 PM 19.4 °F 12.8 °F 14.0 °F 80% 30.31 in 5.0 mi ENE 4.6 mph - N/A   Overcast